sat.trackr.live / text

‹ back to catalog

STARLINK-5027

NORAD 55370 · 2023-013AR

PAYLOAD ACTIVE UNKNOWN

§ Identity

Operator
Country
US
Launch date
2023-01-26
Launch site
AFETR
Launch vehicle
Mass (kg)
RCS (m²)

Purposes: comms

External: N2YO · Heavens-Above · Gunter

§ Orbital elements

Epoch: 2026-09-20T19:05:24.785664Z

Period
94.27 min
Inclination
43.0025°
Eccentricity
0.0001276
Mean motion
15.27576578 rev/d
Perigee alt
482.2 km
Apogee alt
483.9 km
Semi-major
6,861.2 km
B*
1.1329e-5
RAAN
299.5543°
Arg perigee
270.5068°
Mean anomaly
89.5637°
Rev number
20,130

§ Raw data

STARLINK-50271 55370U 23013AR  26263.79542576  .00000050  00000+0  11329-4 0  99972 55370  43.0025 299.5543 0001276 270.5068  89.5637 15.27576578201304

JSON: /api/v1/satellites/55370 · /tle

For live sub-satellite position, see the globe view (requires WebGL).

§ Visibility from observer

Set your observer location to see the next 7 days of passes ≥ 10°. The values pass through the URL so the page stays shareable.

No JS? Fill the form by hand. The geolocation button needs JavaScript.